• En España
  • Lista de países
  • Para 7 días
  • Temperatura del agua
  • Mapa Satelital
  • El tiempo en el mapa
  • Informadores
  • user-avatar
    Iniciar sesión

    Tiempo cada hora Quito

    Hoy, 21 Octubre, Sábado

    Tiempo Temperatura Precipitaciones Viento Presión Humedad
    00:00 +22°C° 0 mm 1 mps 623 mmHg 61%
    01:00 +21°C° 0 mm 2 mps 623 mmHg 66%
    02:00 +21°C° 0,3 mm 1 mps 623 mmHg 71%
    03:00 +20°C° 0,3 mm 1 mps 623 mmHg 76%
    04:00 +19°C° 0,3 mm 1 mps 623 mmHg 81%
    05:00 +20°C° 0,8 mm 1 mps 623 mmHg 78%
    06:00 +21°C° 0,8 mm 1 mps 624 mmHg 76%
    07:00 +22°C° 0,8 mm 1 mps 624 mmHg 74%
    08:00 +25°C° 0,1 mm 1 mps 625 mmHg 63%
    09:00 +27°C° 0,1 mm 1 mps 626 mmHg 52%
    10:00 +30°C° 0,1 mm 1 mps 627 mmHg 41%
    11:00 +31°C° 0 mm 1 mps 627 mmHg 39%
    12:00 +31°C° 0 mm 1 mps 626 mmHg 36%
    13:00 +31°C° 0 mm 1 mps 626 mmHg 33%
    14:00 +30°C° 0 mm 1 mps 625 mmHg 36%
    15:00 +30°C° 0 mm 2 mps 625 mmHg 38%
    16:00 +29°C° 0 mm 2 mps 624 mmHg 40%
    17:00 +27°C° 1,6 mm 2 mps 624 mmHg 50%
    18:00 +25°C° 1,6 mm 3 mps 623 mmHg 60%
    19:00 +22°C° 1,6 mm 3 mps 623 mmHg 69%
    20:00 +21°C° 2,8 mm 3 mps 623 mmHg 73%
    21:00 +20°C° 2,8 mm 3 mps 624 mmHg 76%
    22:00 +19°C° 2,8 mm 3 mps 624 mmHg 80%
    23:00 +19°C° 2,2 mm 3 mps 624 mmHg 82%

    Mañana, 22 Octubre, Domingo

    Tiempo Temperatura Precipitaciones Viento Presión Humedad
    00:00 +19°C° 2,2 mm 3 mps 624 mmHg 84%
    01:00 +19°C° 2,2 mm 3 mps 624 mmHg 86%
    02:00 +18°C° 1,4 mm 2 mps 624 mmHg 86%
    03:00 +18°C° 1,4 mm 2 mps 623 mmHg 86%
    04:00 +19°C° 1,4 mm 1 mps 623 mmHg 86%
    05:00 +19°C° 0,1 mm 1 mps 623 mmHg 83%
    06:00 +18°C° 0,1 mm 2 mps 623 mmHg 81%
    07:00 +19°C° 0,1 mm 2 mps 624 mmHg 79%
    08:00 +21°C° 0 mm 2 mps 625 mmHg 68%
    09:00 +25°C° 0 mm 1 mps 625 mmHg 58%
    10:00 +28°C° 0 mm 1 mps 626 mmHg 47%
    11:00 +29°C° 0 mm 1 mps 626 mmHg 44%
    12:00 +29°C° 0 mm 2 mps 625 mmHg 40%
    13:00 +30°C° 0 mm 3 mps 625 mmHg 37%
    14:00 +29°C° 0 mm 3 mps 624 mmHg 40%
    15:00 +29°C° 0 mm 2 mps 624 mmHg 44%
    16:00 +28°C° 0 mm 2 mps 623 mmHg 48%
    17:00 +26°C° 0,1 mm 2 mps 623 mmHg 52%
    18:00 +25°C° 0,1 mm 1 mps 623 mmHg 56%
    19:00 +23°C° 0,1 mm 1 mps 623 mmHg 60%
    20:00 +22°C° 0,4 mm 1 mps 623 mmHg 67%
    21:00 +21°C° 0,4 mm 1 mps 623 mmHg 73%
    22:00 +20°C° 0,4 mm 1 mps 624 mmHg 79%
    23:00 +20°C° 0,4 mm 1 mps 623 mmHg 82%

    Pasado mañana, 23 Octubre, Lunes

    Tiempo Temperatura Precipitaciones Viento Presión Humedad
    00:00 +19°C° 0,4 mm 1 mps 623 mmHg 84%
    01:00 +18°C° 0,4 mm 2 mps 622 mmHg 86%
    02:00 +18°C° 0 mm 2 mps 622 mmHg 85%
    03:00 +19°C° 0 mm 1 mps 622 mmHg 84%
    04:00 +18°C° 0 mm 1 mps 621 mmHg 84%
    05:00 +19°C° 0 mm 1 mps 622 mmHg 79%
    06:00 +19°C° 0 mm 2 mps 623 mmHg 75%
    07:00 +20°C° 0 mm 2 mps 623 mmHg 71%
    08:00 +24°C° 0 mm 2 mps 624 mmHg 61%
    09:00 +26°C° 0 mm 2 mps 625 mmHg 52%
    10:00 +29°C° 0 mm 3 mps 625 mmHg 42%
    11:00 +30°C° 0 mm 2 mps 625 mmHg 39%
    12:00 +30°C° 0 mm 2 mps 624 mmHg 36%
    13:00 +31°C° 0 mm 2 mps 624 mmHg 33%
    14:00 +31°C° 0 mm 1 mps 623 mmHg 35%
    15:00 +30°C° 0 mm 1 mps 623 mmHg 37%
    16:00 +30°C° 0 mm 1 mps 622 mmHg 38%
    17:00 +28°C° 0 mm 1 mps 622 mmHg 44%
    18:00 +26°C° 0 mm 1 mps 622 mmHg 49%
    19:00 +24°C° 0 mm 1 mps 622 mmHg 55%
    20:00 +23°C° 0,5 mm 1 mps 622 mmHg 60%
    21:00 +22°C° 0,5 mm 1 mps 622 mmHg 64%
    22:00 +22°C° 0,5 mm 1 mps 622 mmHg 69%
    23:00 +21°C° 0,5 mm 1 mps 622 mmHg 72%

    24 Octubre, Martes

    Tiempo Temperatura Precipitaciones Viento Presión Humedad
    00:00 +21°C° 0,5 mm 1 mps 621 mmHg 76%
    01:00 +20°C° 0,5 mm 1 mps 621 mmHg 79%
    02:00 +20°C° 0,6 mm 1 mps 621 mmHg 81%
    03:00 +20°C° 0,6 mm 1 mps 621 mmHg 83%
    04:00 +17°C° 0,6 mm 0 mps 621 mmHg 84%
    05:00 +20°C° 0,6 mm 1 mps 622 mmHg 82%
    06:00 +21°C° 0,6 mm 1 mps 622 mmHg 80%
    07:00 +21°C° 0,6 mm 1 mps 623 mmHg 77%
    08:00 +24°C° 0 mm 1 mps 624 mmHg 67%
    09:00 +27°C° 0 mm 1 mps 624 mmHg 56%
    10:00 +29°C° 0 mm 1 mps 625 mmHg 45%
    11:00 +29°C° 0 mm 1 mps 625 mmHg 45%
    12:00 +29°C° 0 mm 2 mps 624 mmHg 44%
    13:00 +29°C° 0 mm 2 mps 623 mmHg 44%
    14:00 +29°C° 0 mm 2 mps 623 mmHg 44%
    15:00 +29°C° 0 mm 1 mps 623 mmHg 45%
    16:00 +28°C° 0 mm 1 mps 623 mmHg 45%
    17:00 +27°C° 0 mm 2 mps 623 mmHg 51%
    18:00 +25°C° 0 mm 2 mps 623 mmHg 58%
    19:00 +23°C° 0 mm 2 mps 623 mmHg 64%
    20:00 +23°C° 1,6 mm 1 mps 623 mmHg 70%
    21:00 +22°C° 1,6 mm 1 mps 623 mmHg 76%
    22:00 +21°C° 1,6 mm 1 mps 623 mmHg 83%
    23:00 +21°C° 0,9 mm 1 mps 623 mmHg 84%

    25 Octubre, Miércoles

    Tiempo Temperatura Precipitaciones Viento Presión Humedad
    00:00 +20°C° 0,9 mm 1 mps 622 mmHg 85%
    01:00 +20°C° 0,9 mm 1 mps 622 mmHg 86%
    02:00 +20°C° 0,3 mm 1 mps 622 mmHg 86%
    03:00 +20°C° 0,3 mm 1 mps 622 mmHg 86%
    04:00 +20°C° 0,3 mm 1 mps 621 mmHg 86%
    05:00 +20°C° 0 mm 1 mps 622 mmHg 83%
    06:00 +21°C° 0 mm 1 mps 623 mmHg 80%
    07:00 +22°C° 0 mm 1 mps 624 mmHg 77%
    08:00 +24°C° 0,8 mm 1 mps 624 mmHg 70%
    09:00 +25°C° 0,8 mm 1 mps 624 mmHg 62%
    10:00 +27°C° 0,8 mm 2 mps 625 mmHg 55%
    11:00 +28°C° 0,5 mm 1 mps 624 mmHg 52%
    12:00 +29°C° 0,5 mm 1 mps 624 mmHg 48%
    13:00 +29°C° 0,5 mm 1 mps 624 mmHg 45%
    14:00 +29°C° 0 mm 1 mps 623 mmHg 45%
    15:00 +29°C° 0 mm 1 mps 623 mmHg 45%
    16:00 +29°C° 0 mm 1 mps 623 mmHg 46%
    17:00 +26°C° 0,3 mm 1 mps 623 mmHg 54%
    18:00 +24°C° 0,3 mm 2 mps 623 mmHg 62%
    19:00 +21°C° 0,3 mm 2 mps 623 mmHg 70%
    20:00 +20°C° 2,2 mm 2 mps 623 mmHg 77%
    21:00 +19°C° 2,2 mm 2 mps 623 mmHg 83%
    22:00 +18°C° 2,2 mm 2 mps 623 mmHg 90%
    23:00 +18°C° 0,8 mm 2 mps 623 mmHg 89%

    26 Octubre, Jueves

    Tiempo Temperatura Precipitaciones Viento Presión Humedad
    00:00 +18°C° 0,8 mm 2 mps 622 mmHg 89%
    01:00 +19°C° 0,8 mm 1 mps 622 mmHg 88%
    02:00 +19°C° 0,1 mm 1 mps 622 mmHg 88%
    03:00 +19°C° 0,1 mm 1 mps 622 mmHg 87%
    04:00 +19°C° 0,1 mm 1 mps 622 mmHg 87%
    05:00 +18°C° 0,1 mm 2 mps 622 mmHg 86%
    06:00 +19°C° 0,1 mm 2 mps 623 mmHg 84%
    07:00 +19°C° 0,1 mm 2 mps 623 mmHg 82%
    08:00 +21°C° 0,1 mm 2 mps 624 mmHg 74%
    09:00 +24°C° 0,1 mm 2 mps 624 mmHg 65%
    10:00 +26°C° 0,1 mm 2 mps 625 mmHg 56%
    11:00 +28°C° 0 mm 2 mps 625 mmHg 51%
    12:00 +29°C° 0 mm 1 mps 625 mmHg 45%
    13:00 +31°C° 0 mm 1 mps 624 mmHg 39%
    14:00 +30°C° 0 mm 1 mps 624 mmHg 43%
    15:00 +29°C° 0 mm 1 mps 623 mmHg 46%
    16:00 +27°C° 0 mm 1 mps 622 mmHg 50%
    17:00 +26°C° 0 mm 1 mps 622 mmHg 56%
    18:00 +24°C° 0 mm 1 mps 622 mmHg 61%
    19:00 +21°C° 0 mm 2 mps 621 mmHg 67%
    20:00 +22°C° 0,1 mm 1 mps 621 mmHg 69%
    21:00 +21°C° 0,1 mm 1 mps 621 mmHg 72%
    22:00 +20°C° 0,1 mm 1 mps 622 mmHg 74%
    23:00 +20°C° 1,2 mm 1 mps 621 mmHg 79%
    Mostrar más